Flag for Vanuatu Weather past 2 weeks in Port Vila, Vanuatu

Now
73 °F

Partly sunny.


Feels Like: 75 °F
Forecast: 72 / 78 °F
Wind: 15 mph from Southeast

Location: Bauerfield Efate

Current Time: Aug 2, 2015 at 6:02:00 PM

Latest Report: Aug 2, 2015 at 5:00 PM


Visibility: N/A

Pressure: 29.95 "Hg

Humidity: 74%

Dew point: 64 °F

Location of Port VilaLocation

Historic Weather in Port Vila — Graph

°F

Port Vila temperature yesterday

Maximum temperature yesterday: 79 °F (at 12:00 PM)
Minimum temperature yesterday: 70 °F (at 1:00 AM)
Average temperature yesterday: 73 °F

Past Weeks' High & Low Weather Summary

 TemperatureHumidityPressure
High82 °F (Jul 19, 10:00 AM)100% (Jul 25, 11:00 PM)30.15 "Hg (Jul 25, 11:00 PM)
Low59 °F (Jul 26, 6:00 AM)54% (Jul 27, 11:00 AM)29.89 "Hg (Jul 30, 3:00 PM)
Average73 °F82%30.03 "Hg
* Reported Jul 18 4:00 PM — Aug 2 4:00 PM, Port Vila, Weather by CustomWeather, © 2015

Note: Actual official high and low records may vary slightly from our data, if they occured in-between our weather recording intervals... More about our weather records

Advertising

Port Vila weather history for previous 24 hours

 ConditionsComfort  
Time TempWeatherWind HumidityBarometerVisibility
4:00 PM
Sun, Aug 2
75 °FPartly sunny.21 mph74%29.92 "HgN/A
3:00 PM77 °FPartly sunny.24 mph65%29.92 "HgN/A
2:00 PM77 °FPartly sunny.24 mph65%29.92 "HgN/A
1:00 PM77 °FPartly sunny.23 mph74%30.01 "HgN/A
8:00 AM73 °FScattered clouds.18 mph83%30.01 "HgN/A
7:00 AM72 °FScattered showers. Partly sunny.13 mph88%29.98 "HgN/A
6:00 AM72 °FPassing clouds.13 mph88%29.95 "HgN/A
5:00 AM72 °FPartly cloudy.10 mph94%29.95 "HgN/A
2:00 AM72 °FPassing clouds.12 mph88%29.95 "HgN/A
1:00 AM72 °FPartly cloudy.10 mph88%29.95 "HgN/A
12:00 AM72 °FPartly cloudy.13 mph94%29.98 "HgN/A
11:00 PM
Sat, Aug 1
72 °FPartly cloudy.13 mph88%29.98 "HgN/A
10:00 PM72 °FPartly cloudy.13 mph88%29.98 "HgN/A
9:00 PM72 °FScattered showers. Partly cloudy.12 mph88%29.98 "HgN/A
8:00 PM72 °FScattered showers. Partly cloudy.13 mph94%29.95 "HgN/A
6:00 PM72 °FMostly cloudy.9 mph88%29.92 "HgN/A
Weather by CustomWeather, © 2015

See weather overviewHow to use our weather pages